Weather History for KTIW - September, 2012

Change the Weather History Date:

Saturday, September 15, 2012

  Actual Average Record
Temperature  
Mean Temperature 61 °F -  
Max Temperature 72 °F 66 °F 84 °F (2014)
Min Temperature 51 °F 50 °F 46 °F (2003)
Degree Days  
Heating Degree Days 4    
Growing Degree Days 11 (Base 50)    
Moisture  
Dew Point 49 °F    
Average Humidity 72    
Maximum Humidity 94    
Minimum Humidity 44    
Precipitation  
Precipitation 0.00 in - - ()
Sea Level Pressure  
Sea Level Pressure 30.14 in    
Wind  
Wind Speed 2 mph (WSW)    
Max Wind Speed 5 mph    
Max Gust Speed -    
Visibility 7 miles    
Events      
Averages and records for this station are not official NWS values.
T = Trace of Precipitation, MM = Missing Value Source: NWS Daily Summary

Daily Weather History Graph

Daily Weather History Graph

Search for Another Location

Airport or City:

Trip Planner

Search our weather history database for the weather conditions in past years. The results will help you decide how hot, cold, wet, or windy it might be!

Date:

Astronomy

Sep. 15, 2012 Rise Set
Actual Time 6:48 AM PDT 7:21 PM PDT
Civil Twilight 6:17 AM PDT 7:51 PM PDT
Nautical Twilight 5:41 AM PDT 8:28 PM PDT
Astronomical Twilight 5:03 AM PDT 9:05 PM PDT
Moon 6:27 AM PDT (9/15) 6:49 PM PDT (9/15)
Length of Visible Light 13h 33m
Length of Day
12h 32m
Waning Crescent, 0% of the Moon is Illuminated
Sep 15
Waning Crescent
Sep 15
New
Sep 22
First Quarter
Sep 29
Full
Oct 8
Last Quarter

Hourly Weather History & Observations

Time (PDT) Temp. Dew Point Humidity Pressure Visibility Wind Dir Wind Speed Gust Speed Precip Events Conditions
12:53 AM 60.1 °F 44.1 °F 55% 30.07 in 10.0 mi West 3.5 mph - N/A   Clear
1:53 AM 57.0 °F 46.9 °F 69% 30.09 in 9.0 mi Calm Calm - N/A   Clear
2:53 AM 55.0 °F 48.0 °F 77% 30.10 in 9.0 mi Calm Calm - N/A   Clear
3:53 AM 54.0 °F 48.9 °F 83% 30.10 in 8.0 mi Calm Calm - N/A   Clear
4:53 AM 53.1 °F 50.0 °F 89% 30.11 in 8.0 mi SW 3.5 mph - N/A   Clear
5:53 AM 52.0 °F 48.9 °F 89% 30.12 in 7.0 mi Calm Calm - N/A   Clear
6:53 AM 51.1 °F 48.9 °F 92% 30.14 in 4.0 mi West 3.5 mph - N/A   Scattered Clouds
7:01 AM 51.8 °F 48.2 °F 88% 30.14 in 3.0 mi Calm Calm - N/A   Mostly Cloudy
7:23 AM 51.8 °F 48.2 °F 88% 30.14 in 2.5 mi Calm Calm - N/A   Overcast
7:34 AM 51.8 °F 48.2 °F 88% 30.14 in 3.0 mi SW 3.5 mph - N/A   Overcast
7:41 AM 51.8 °F 50.0 °F 94% 30.14 in 2.5 mi SSW 3.5 mph - N/A   Overcast
7:53 AM 52.0 °F 50.0 °F 93% 30.15 in 3.0 mi Calm Calm - N/A   Overcast
8:53 AM 52.0 °F 50.0 °F 93% 30.16 in 2.0 mi WSW 3.5 mph - N/A   Overcast
9:53 AM 53.1 °F 50.0 °F 89% 30.16 in 2.0 mi West 3.5 mph - N/A   Overcast
10:43 AM 55.4 °F 50.0 °F 82% 30.17 in 2.0 mi Calm Calm - N/A   Haze
10:53 AM 55.9 °F 50.0 °F 80% 30.18 in 6.0 mi Calm Calm - N/A   Haze
11:53 AM 60.1 °F 51.1 °F 72% 30.19 in 10.0 mi Variable 4.6 mph - N/A   Clear
12:53 PM 63.0 °F 50.0 °F 63% 30.18 in 8.0 mi Variable 4.6 mph - N/A   Clear
1:53 PM 69.1 °F 50.0 °F 51% 30.17 in 9.0 mi Variable 3.5 mph - N/A   Clear
2:53 PM 70.0 °F 48.9 °F 47% 30.15 in 9.0 mi Variable 3.5 mph - N/A   Clear
3:53 PM 71.1 °F 48.0 °F 44% 30.15 in 9.0 mi WSW 3.5 mph - N/A   Clear
4:53 PM 71.1 °F 48.9 °F 45% 30.14 in 9.0 mi Calm Calm - N/A   Clear
5:53 PM 70.0 °F 50.0 °F 49% 30.14 in 9.0 mi Calm Calm - N/A   Clear
6:53 PM 70.0 °F 51.1 °F 51% 30.14 in 8.0 mi Calm Calm - N/A   Clear
7:53 PM 66.9 °F 48.9 °F 52% 30.14 in 10.0 mi Calm Calm - N/A   Clear
8:53 PM 63.0 °F 48.0 °F 58% 30.16 in 10.0 mi Calm Calm - N/A   Clear
9:53 PM 61.0 °F 48.9 °F 64% 30.17 in 9.0 mi Calm Calm - N/A   Clear
10:53 PM 55.9 °F 48.0 °F 75% 30.18 in 9.0 mi West 3.5 mph - N/A   Clear
11:53 PM 55.0 °F 46.9 °F 74% 30.17 in 9.0 mi Calm Calm - N/A   Clear